カタログに戻る

CZ-3B DEB

LostGTO
NORAD 40847·DEBRIS·🇨🇳 China

打ち上げ Dec 19, 2011 から Xichang Satellite Launch Center

Loading…

TLE

古いSource: Space-Track

元期: Mar 11, 2023, 11:43 UTC

1 40847U 11077AC  23070.48882942  .00036350  00000-0  95949-1 0  9990
2 40847  25.5043  94.6658 7305527 251.8208  22.0594  2.17775155 61882

AllMySatでCZ-3B DEBをリアルタイム追跡

Download on the App Store